Aufgelaufene Messwerte:
Wetterdaten: aktuell Dienstag, 23.01.2018 22:55
Datum Zeit Temp. Feuchte Luftdruck Regen Wind WRichtung WRichtung Sonnenschein Verdunstung UV-Index Solar Taupunkt Windchill Windben Empfang
23.01.2018 22:55 5,6 C 98 % 1013,1 hPa 0,0 mm 8,9 km/h (2 Bft) S-SW 194 0 min 0,000 mm 0,0 UV-I 0 W/m 5,3 C 3,6 C 12,9 km/h (3 Bft) 99,16 %
23.01.2018 22:50 5,6 C 98 % 1013,3 hPa 0,2 mm 8,0 km/h (2 Bft) SW 232 0 min 0,000 mm 0,0 UV-I 0 W/m 5,3 C 3,8 C 14,5 km/h (3 Bft) 99,09 %
23.01.2018 22:45 5,6 C 98 % 1013,4 hPa 0,0 mm 9,2 km/h (2 Bft) SW 223 0 min 0,000 mm 0,0 UV-I 0 W/m 5,3 C 3,6 C 17,7 km/h (3 Bft) 100,00 %
23.01.2018 22:40 5,6 C 98 % 1013,6 hPa 0,0 mm 8,0 km/h (2 Bft) S-SW 194 0 min 0,000 mm 0,0 UV-I 0 W/m 5,3 C 3,8 C 20,9 km/h (4 Bft) 96,58 %
23.01.2018 22:35 5,6 C 98 % 1013,6 hPa 0,0 mm 10,3 km/h (2 Bft) S 174 0 min 0,000 mm 0,0 UV-I 0 W/m 5,3 C 3,3 C 17,7 km/h (3 Bft) 97,46 %
23.01.2018 22:30 5,6 C 98 % 1013,6 hPa 0,0 mm 9,7 km/h (2 Bft) S 178 0 min 0,000 mm 0,0 UV-I 0 W/m 5,3 C 3,4 C 22,5 km/h (4 Bft) 95,41 %
23.01.2018 22:25 5,6 C 98 % 1013,6 hPa 0,0 mm 8,8 km/h (2 Bft) S-SW 199 0 min 0,000 mm 0,0 UV-I 0 W/m 5,3 C 3,6 C 17,7 km/h (3 Bft) 97,48 %
23.01.2018 22:20 5,5 C 98 % 1013,6 hPa 0,2 mm 6,0 km/h (2 Bft) S 188 0 min 0,000 mm 0,0 UV-I 0 W/m 5,2 C 4,3 C 12,9 km/h (3 Bft) 95,83 %
23.01.2018 22:15 5,5 C 98 % 1013,6 hPa 0,0 mm 11,7 km/h (2 Bft) S-SW 203 0 min 0,000 mm 0,0 UV-I 0 W/m 5,2 C 2,9 C 24,1 km/h (4 Bft) 100,00 %
23.01.2018 22:10 5,5 C 98 % 1013,6 hPa 0,0 mm 12,3 km/h (3 Bft) S-SW 200 0 min 0,000 mm 0,0 UV-I 0 W/m 5,2 C 2,8 C 20,9 km/h (4 Bft) 98,31 %
23.01.2018 22:05 5,5 C 98 % 1013,7 hPa 0,0 mm 10,9 km/h (2 Bft) S 180 0 min 0,000 mm 0,0 UV-I 0 W/m 5,2 C 3,1 C 24,1 km/h (4 Bft) 96,40 %
23.01.2018 22:00 5,5 C 97 % 1013,6 hPa 0,2 mm 10,8 km/h (2 Bft) S 186 0 min 0,000 mm 0,0 UV-I 0 W/m 5,1 C 3,1 C 25,7 km/h (4 Bft) 100,00 %
23.01.2018 21:55 5,5 C 97 % 1013,5 hPa 0,0 mm 11,1 km/h (2 Bft) S 169 0 min 0,000 mm 0,0 UV-I 0 W/m 5,1 C 3,0 C 25,7 km/h (4 Bft) 100,00 %
23.01.2018 21:50 5,5 C 97 % 1013,6 hPa 0,2 mm 10,7 km/h (2 Bft) S 173 0 min 0,000 mm 0,0 UV-I 0 W/m 5,1 C 3,1 C 19,3 km/h (3 Bft) 100,00 %
23.01.2018 21:45 5,5 C 97 % 1013,9 hPa 0,0 mm 12,9 km/h (3 Bft) S 175 0 min 0,000 mm 0,0 UV-I 0 W/m 5,1 C 2,7 C 25,7 km/h (4 Bft) 99,09 %
23.01.2018 21:40 5,5 C 97 % 1013,9 hPa 0,0 mm 9,6 km/h (2 Bft) S 188 0 min 0,000 mm 0,0 UV-I 0 W/m 5,1 C 3,3 C 17,7 km/h (3 Bft) 100,00 %
23.01.2018 21:35 5,5 C 97 % 1014,0 hPa 0,2 mm 8,9 km/h (2 Bft) S 169 0 min 0,000 mm 0,0 UV-I 0 W/m 5,1 C 3,5 C 16,1 km/h (3 Bft) 100,00 %
23.01.2018 21:30 5,5 C 97 % 1014,1 hPa 0,4 mm 9,4 km/h (2 Bft) S 180 0 min 0,000 mm 0,0 UV-I 0 W/m 5,1 C 3,4 C 17,7 km/h (3 Bft) 98,29 %
23.01.2018 21:25 5,5 C 97 % 1014,2 hPa 0,0 mm 7,3 km/h (2 Bft) S 188 0 min 0,000 mm 0,0 UV-I 0 W/m 5,1 C 3,9 C 14,5 km/h (3 Bft) 94,92 %
23.01.2018 21:20 5,5 C 97 % 1014,2 hPa 0,0 mm 9,4 km/h (2 Bft) S 172 0 min 0,000 mm 0,0 UV-I 0 W/m 5,1 C 3,4 C 16,1 km/h (3 Bft) 95,87 %
23.01.2018 21:15 5,6 C 97 % 1014,4 hPa 0,0 mm 9,0 km/h (2 Bft) S 181 0 min 0,000 mm 0,0 UV-I 0 W/m 5,2 C 3,6 C 16,1 km/h (3 Bft) 97,32 %
23.01.2018 21:10 5,5 C 97 % 1014,4 hPa 0,0 mm 8,9 km/h (2 Bft) S 186 0 min 0,000 mm 0,0 UV-I 0 W/m 5,1 C 3,5 C 19,3 km/h (3 Bft) 100,00 %
23.01.2018 21:05 5,5 C 97 % 1014,3 hPa 0,0 mm 11,7 km/h (2 Bft) S-SW 194 0 min 0,000 mm 0,0 UV-I 0 W/m 5,1 C 2,9 C 29,0 km/h (5 Bft) 99,15 %
23.01.2018 21:00 5,5 C 97 % 1014,3 hPa 0,2 mm 9,7 km/h (2 Bft) S-SW 194 0 min 0,000 mm 0,0 UV-I 0 W/m 5,1 C 3,3 C 19,3 km/h (3 Bft) 99,07 %
23.01.2018 20:55 5,5 C 97 % 1014,4 hPa 0,0 mm 8,6 km/h (2 Bft) S-SW 192 0 min 0,000 mm 0,0 UV-I 0 W/m 5,1 C 3,6 C 19,3 km/h (3 Bft) 99,15 %
23.01.2018 20:50 5,6 C 97 % 1014,4 hPa 0,2 mm 9,0 km/h (2 Bft) S 186 0 min 0,000 mm 0,0 UV-I 0 W/m 5,2 C 3,6 C 17,7 km/h (3 Bft) 100,00 %
23.01.2018 20:45 5,6 C 97 % 1014,5 hPa 0,0 mm 11,6 km/h (2 Bft) S 172 0 min 0,000 mm 0,0 UV-I 0 W/m 5,2 C 3,1 C 25,7 km/h (4 Bft) 96,64 %
23.01.2018 20:40 5,5 C 97 % 1014,5 hPa 0,0 mm 12,6 km/h (3 Bft) S 186 0 min 0,000 mm 0,0 UV-I 0 W/m 5,1 C 2,8 C 25,7 km/h (4 Bft) 100,00 %
23.01.2018 20:35 5,5 C 97 % 1014,7 hPa 0,0 mm 11,0 km/h (2 Bft) S-SW 196 0 min 0,000 mm 0,0 UV-I 0 W/m 5,1 C 3,1 C 17,7 km/h (3 Bft) 98,35 %
23.01.2018 20:30 5,5 C 97 % 1014,7 hPa 0,0 mm 12,4 km/h (3 Bft) S 186 0 min 0,000 mm 0,0 UV-I 0 W/m 5,1 C 2,8 C 22,5 km/h (4 Bft) 96,26 %
23.01.2018 20:25 5,5 C 97 % 1014,8 hPa 0,0 mm 9,3 km/h (2 Bft) S 188 0 min 0,000 mm 0,0 UV-I 0 W/m 5,1 C 3,4 C 16,1 km/h (3 Bft) 97,52 %
23.01.2018 20:20 5,5 C 97 % 1014,8 hPa 0,0 mm 7,7 km/h (2 Bft) S 178 0 min 0,000 mm 0,0 UV-I 0 W/m 5,1 C 3,8 C 14,5 km/h (3 Bft) 98,31 %
23.01.2018 20:15 5,5 C 97 % 1014,9 hPa 0,0 mm 8,4 km/h (2 Bft) S 173 0 min 0,000 mm 0,0 UV-I 0 W/m 5,1 C 3,6 C 17,7 km/h (3 Bft) 98,32 %
23.01.2018 20:10 5,5 C 97 % 1014,9 hPa 0,0 mm 7,9 km/h (2 Bft) S 183 0 min 0,000 mm 0,0 UV-I 0 W/m 5,1 C 3,7 C 16,1 km/h (3 Bft) 99,15 %
23.01.2018 20:05 5,5 C 97 % 1015,0 hPa 0,2 mm 9,0 km/h (2 Bft) S 184 0 min 0,000 mm 0,0 UV-I 0 W/m 5,1 C 3,5 C 16,1 km/h (3 Bft) 100,00 %
23.01.2018 20:00 5,5 C 97 % 1015,2 hPa 0,0 mm 9,1 km/h (2 Bft) S 178 0 min 0,000 mm 0,0 UV-I 0 W/m 5,1 C 3,5 C 16,1 km/h (3 Bft) 99,09 %
23.01.2018 19:55 5,5 C 97 % 1015,2 hPa 0,0 mm 7,1 km/h (2 Bft) S 180 0 min 0,000 mm 0,0 UV-I 0 W/m 5,1 C 4,0 C 17,7 km/h (3 Bft) 100,00 %
23.01.2018 19:50 5,5 C 97 % 1015,2 hPa 0,0 mm 8,2 km/h (2 Bft) S 181 0 min 0,000 mm 0,0 UV-I 0 W/m 5,1 C 3,7 C 14,5 km/h (3 Bft) 100,00 %
23.01.2018 19:45 5,5 C 97 % 1015,2 hPa 0,0 mm 7,6 km/h (2 Bft) S 172 0 min 0,000 mm 0,0 UV-I 0 W/m 5,1 C 3,8 C 14,5 km/h (3 Bft) 99,15 %
23.01.2018 19:40 5,5 C 97 % 1015,2 hPa 0,0 mm 10,6 km/h (2 Bft) S 182 0 min 0,000 mm 0,0 UV-I 0 W/m 5,1 C 3,1 C 19,3 km/h (3 Bft) 100,00 %
23.01.2018 19:35 5,5 C 97 % 1015,3 hPa 0,0 mm 7,5 km/h (2 Bft) S-SW 200 0 min 0,000 mm 0,0 UV-I 0 W/m 5,1 C 3,9 C 17,7 km/h (3 Bft) 99,09 %
23.01.2018 19:30 5,5 C 97 % 1015,2 hPa 0,0 mm 7,3 km/h (2 Bft) S 179 0 min 0,000 mm 0,0 UV-I 0 W/m 5,1 C 3,9 C 14,5 km/h (3 Bft) 98,33 %
23.01.2018 19:25 5,5 C 97 % 1015,4 hPa 0,0 mm 8,2 km/h (2 Bft) S 180 0 min 0,000 mm 0,0 UV-I 0 W/m 5,1 C 3,7 C 14,5 km/h (3 Bft) 97,48 %
23.01.2018 19:20 5,5 C 98 % 1015,4 hPa 0,0 mm 10,3 km/h (2 Bft) S 175 0 min 0,000 mm 0,0 UV-I 0 W/m 5,2 C 3,2 C 22,5 km/h (4 Bft) 97,46 %
23.01.2018 19:15 5,5 C 98 % 1015,4 hPa 0,0 mm 11,6 km/h (2 Bft) S 188 0 min 0,000 mm 0,0 UV-I 0 W/m 5,2 C 2,9 C 19,3 km/h (3 Bft) 97,46 %
23.01.2018 19:10 5,5 C 98 % 1015,6 hPa 0,0 mm 9,5 km/h (2 Bft) S 181 0 min 0,000 mm 0,0 UV-I 0 W/m 5,2 C 3,4 C 17,7 km/h (3 Bft) 98,31 %
23.01.2018 19:05 5,5 C 98 % 1015,5 hPa 0,0 mm 9,5 km/h (2 Bft) S 180 0 min 0,000 mm 0,0 UV-I 0 W/m 5,2 C 3,4 C 19,3 km/h (3 Bft) 100,00 %
23.01.2018 19:00 5,5 C 98 % 1015,6 hPa 0,0 mm 10,7 km/h (2 Bft) S 171 0 min 0,000 mm 0,0 UV-I 0 W/m 5,2 C 3,1 C 19,3 km/h (3 Bft) 100,00 %
23.01.2018 18:55 5,5 C 98 % 1015,6 hPa 0,0 mm 9,8 km/h (2 Bft) S-SW 192 0 min 0,000 mm 0,0 UV-I 0 W/m 5,2 C 3,3 C 19,3 km/h (3 Bft) 100,00 %
23.01.2018 18:50 5,5 C 98 % 1015,6 hPa 0,0 mm 10,8 km/h (2 Bft) S 175 0 min 0,000 mm 0,0 UV-I 0 W/m 5,2 C 3,1 C 19,3 km/h (3 Bft) 98,31 %
23.01.2018 18:45 5,5 C 98 % 1015,7 hPa 0,0 mm 10,8 km/h (2 Bft) S-SW 195 0 min 0,000 mm 0,0 UV-I 0 W/m 5,2 C 3,1 C 17,7 km/h (3 Bft) 100,00 %
23.01.2018 18:40 5,5 C 98 % 1015,7 hPa 0,0 mm 8,5 km/h (2 Bft) S 171 0 min 0,000 mm 0,0 UV-I 0 W/m 5,2 C 3,6 C 14,5 km/h (3 Bft) 100,00 %
23.01.2018 18:35 5,5 C 98 % 1015,9 hPa 0,0 mm 11,0 km/h (2 Bft) S 169 0 min 0,000 mm 0,0 UV-I 0 W/m 5,2 C 3,1 C 25,7 km/h (4 Bft) 99,15 %
23.01.2018 18:30 5,4 C 98 % 1016,0 hPa 0,0 mm 8,7 km/h (2 Bft) S-SW 196 0 min 0,000 mm 0,0 UV-I 0 W/m 5,1 C 3,4 C 19,3 km/h (3 Bft) 97,46 %
23.01.2018 18:25 5,4 C 98 % 1016,1 hPa 0,0 mm 9,5 km/h (2 Bft) S 183 0 min 0,000 mm 0,0 UV-I 0 W/m 5,1 C 3,2 C 16,1 km/h (3 Bft) 96,23 %
23.01.2018 18:20 5,4 C 98 % 1016,2 hPa 0,0 mm 9,2 km/h (2 Bft) S 179 0 min 0,000 mm 0,0 UV-I 0 W/m 5,1 C 3,3 C 16,1 km/h (3 Bft) 97,52 %
23.01.2018 18:15 5,4 C 98 % 1016,3 hPa 0,0 mm 8,8 km/h (2 Bft) S 171 0 min 0,000 mm 0,0 UV-I 0 W/m 5,1 C 3,4 C 17,7 km/h (3 Bft) 98,31 %
23.01.2018 18:10 5,4 C 98 % 1016,3 hPa 0,0 mm 7,9 km/h (2 Bft) S-SO 160 0 min 0,000 mm 0,0 UV-I 0 W/m 5,1 C 3,6 C 14,5 km/h (3 Bft) 100,00 %
23.01.2018 18:05 5,4 C 98 % 1016,6 hPa 0,0 mm 6,9 km/h (2 Bft) S 191 0 min 0,000 mm 0,0 UV-I 0 W/m 5,1 C 3,9 C 17,7 km/h (3 Bft) 80,95 %
23.01.2018 18:00 5,4 C 98 % 1016,5 hPa 0,0 mm 7,2 km/h (2 Bft) S 176 0 min 0,000 mm 0,0 UV-I 0 W/m 5,1 C 3,8 C 14,5 km/h (3 Bft) 100,00 %
23.01.2018 17:55 5,4 C 98 % 1016,6 hPa 0,0 mm 7,1 km/h (2 Bft) S-SW 192 0 min 0,000 mm 0,0 UV-I 0 W/m 5,1 C 3,8 C 17,7 km/h (3 Bft) 99,17 %
23.01.2018 17:50 5,4 C 98 % 1016,6 hPa 0,0 mm 9,2 km/h (2 Bft) S-SO 159 0 min 0,000 mm 0,0 UV-I 0 W/m 5,1 C 3,3 C 16,1 km/h (3 Bft) 100,00 %
23.01.2018 17:45 5,4 C 98 % 1016,7 hPa 0,0 mm 7,9 km/h (2 Bft) S 184 0 min 0,000 mm 0,0 UV-I 0 W/m 5,1 C 3,6 C 14,5 km/h (3 Bft) 99,15 %
23.01.2018 17:40 5,4 C 98 % 1016,6 hPa 0,0 mm 9,7 km/h (2 Bft) S 178 0 min 0,000 mm 0,0 UV-I 0 W/m 5,1 C 3,2 C 16,1 km/h (3 Bft) 100,00 %
23.01.2018 17:35 5,4 C 98 % 1016,7 hPa 0,0 mm 8,3 km/h (2 Bft) S 182 0 min 0,000 mm 0,0 UV-I 0 W/m 5,1 C 3,5 C 14,5 km/h (3 Bft) 100,00 %
23.01.2018 17:30 5,4 C 98 % 1016,8 hPa 0,0 mm 8,3 km/h (2 Bft) S 186 0 min 0,000 mm 0,0 UV-I 0 W/m 5,1 C 3,5 C 16,1 km/h (3 Bft) 97,44 %
23.01.2018 17:25 5,4 C 98 % 1016,9 hPa 0,0 mm 8,6 km/h (2 Bft) S-SO 157 0 min 0,000 mm 0,0 UV-I 0 W/m 5,1 C 3,5 C 16,1 km/h (3 Bft) 97,48 %
23.01.2018 17:20 5,4 C 98 % 1016,9 hPa 0,2 mm 7,5 km/h (2 Bft) S 176 0 min 0,000 mm 0,0 UV-I 0 W/m 5,1 C 3,7 C 16,1 km/h (3 Bft) 97,27 %
23.01.2018 17:15 5,4 C 98 % 1016,8 hPa 0,0 mm 7,4 km/h (2 Bft) S 184 0 min 0,000 mm 0,0 UV-I 0 W/m 5,1 C 3,8 C 16,1 km/h (3 Bft) 100,00 %
23.01.2018 17:10 5,4 C 98 % 1016,8 hPa 0,0 mm 3,9 km/h (1 Bft) S 178 0 min 0,000 mm 0,0 UV-I 0 W/m 5,1 C 5,4 C 11,3 km/h (2 Bft) 98,35 %
23.01.2018 17:05 5,4 C 98 % 1017,0 hPa 0,0 mm 6,4 km/h (2 Bft) S 175 0 min 0,000 mm 0,0 UV-I 0 W/m 5,1 C 4,1 C 16,1 km/h (3 Bft) 100,00 %
23.01.2018 17:00 5,4 C 98 % 1017,0 hPa 0,0 mm 5,9 km/h (2 Bft) S 187 0 min 0,000 mm 0,0 UV-I 0 W/m 5,1 C 4,2 C 16,1 km/h (3 Bft) 100,00 %
23.01.2018 16:55 5,4 C 98 % 1017,1 hPa 0,0 mm 5,5 km/h (1 Bft) S 175 0 min 0,000 mm 0,0 UV-I 0 W/m 5,1 C 4,4 C 12,9 km/h (3 Bft) 99,15 %
23.01.2018 16:50 5,4 C 98 % 1017,2 hPa 0,0 mm 4,5 km/h (1 Bft) S 181 0 min 0,000 mm 0,0 UV-I 0 W/m 5,1 C 5,4 C 14,5 km/h (3 Bft) 100,00 %
23.01.2018 16:45 5,4 C 98 % 1017,3 hPa 0,0 mm 4,1 km/h (1 Bft) S 187 0 min 0,000 mm 0,0 UV-I 0 W/m 5,1 C 5,4 C 12,9 km/h (3 Bft) 100,00 %
23.01.2018 16:40 5,4 C 98 % 1017,3 hPa 0,2 mm 6,1 km/h (2 Bft) S 179 0 min 0,000 mm 0,0 UV-I 0 W/m 5,1 C 4,2 C 11,3 km/h (2 Bft) 99,18 %
23.01.2018 16:35 5,5 C 98 % 1017,3 hPa 0,0 mm 6,7 km/h (2 Bft) S 184 0 min 0,000 mm 0,0 UV-I 5 W/m 5,2 C 4,1 C 12,9 km/h (3 Bft) 100,00 %
23.01.2018 16:30 5,5 C 98 % 1017,2 hPa 0,0 mm 7,0 km/h (2 Bft) S-SO 165 0 min 0,000 mm 0,0 UV-I 7 W/m 5,2 C 4,0 C 14,5 km/h (3 Bft) 97,48 %
23.01.2018 16:25 5,5 C 98 % 1017,4 hPa 0,0 mm 6,9 km/h (2 Bft) S 188 0 min 0,000 mm 0,0 UV-I 8 W/m 5,2 C 4,0 C 12,9 km/h (3 Bft) 98,29 %
23.01.2018 16:20 5,5 C 99 % 1017,3 hPa 0,0 mm 8,0 km/h (2 Bft) S 184 0 min 0,000 mm 0,0 UV-I 11 W/m 5,4 C 3,7 C 12,9 km/h (3 Bft) 96,33 %
23.01.2018 16:15 5,6 C 99 % 1017,2 hPa 0,2 mm 5,0 km/h (1 Bft) S 182 0 min 0,000 mm 0,0 UV-I 13 W/m 5,5 C 4,8 C 11,3 km/h (2 Bft) 99,16 %
23.01.2018 16:10 5,6 C 99 % 1017,3 hPa 0,0 mm 5,9 km/h (2 Bft) S 180 0 min 0,000 mm 0,0 UV-I 16 W/m 5,5 C 4,4 C 12,9 km/h (3 Bft) 99,17 %
23.01.2018 16:05 5,6 C 99 % 1017,5 hPa 0,0 mm 7,3 km/h (2 Bft) S 174 0 min 0,000 mm 0,0 UV-I 17 W/m 5,5 C 4,0 C 14,5 km/h (3 Bft) 99,17 %
23.01.2018 16:00 5,6 C 99 % 1017,4 hPa 0,0 mm 4,0 km/h (1 Bft) S 180 0 min 0,026 mm 0,0 UV-I 21 W/m 5,5 C 5,6 C 11,3 km/h (2 Bft) 100,00 %
23.01.2018 15:55 5,6 C 99 % 1017,3 hPa 0,2 mm 6,8 km/h (2 Bft) S 181 0 min 0,000 mm 0,0 UV-I 24 W/m 5,5 C 4,2 C 12,9 km/h (3 Bft) 99,15 %
23.01.2018 15:50 5,6 C 99 % 1017,3 hPa 0,0 mm 5,0 km/h (1 Bft) S 184 0 min 0,000 mm 0,0 UV-I 26 W/m 5,5 C 4,8 C 12,9 km/h (3 Bft) 100,00 %
23.01.2018 15:45 5,6 C 99 % 1017,4 hPa 0,0 mm 6,2 km/h (2 Bft) S 176 0 min 0,000 mm 0,0 UV-I 29 W/m 5,5 C 4,3 C 11,3 km/h (2 Bft) 99,17 %
23.01.2018 15:40 5,6 C 99 % 1017,3 hPa 0,0 mm 3,0 km/h (1 Bft) S 187 0 min 0,000 mm 0,0 UV-I 32 W/m 5,5 C 5,6 C 11,3 km/h (2 Bft) 100,00 %
23.01.2018 15:35 5,7 C 99 % 1017,4 hPa 0,0 mm 5,3 km/h (1 Bft) S 187 0 min 0,000 mm 0,0 UV-I 30 W/m 5,6 C 4,8 C 11,3 km/h (2 Bft) 99,08 %
23.01.2018 15:30 5,7 C 99 % 1017,5 hPa 0,2 mm 5,2 km/h (1 Bft) S 182 0 min 0,000 mm 0,0 UV-I 31 W/m 5,6 C 4,8 C 14,5 km/h (3 Bft) 96,61 %
23.01.2018 15:25 5,7 C 99 % 1017,6 hPa 0,0 mm 4,7 km/h (1 Bft) S 180 0 min 0,000 mm 0,0 UV-I 37 W/m 5,6 C 5,0 C 9,7 km/h (2 Bft) 97,54 %
23.01.2018 15:20 5,7 C 99 % 1017,6 hPa 0,0 mm 6,4 km/h (2 Bft) S 172 0 min 0,000 mm 0,0 UV-I 39 W/m 5,6 C 4,4 C 12,9 km/h (3 Bft) 96,61 %
23.01.2018 15:15 5,8 C 99 % 1017,7 hPa 0,0 mm 4,1 km/h (1 Bft) S 186 0 min 0,000 mm 0,0 UV-I 43 W/m 5,7 C 5,8 C 12,9 km/h (3 Bft) 99,09 %
23.01.2018 15:10 5,8 C 99 % 1017,8 hPa 0,2 mm 4,5 km/h (1 Bft) S-SW 195 0 min 0,000 mm 0,0 UV-I 41 W/m 5,7 C 5,8 C 11,3 km/h (2 Bft) 100,00 %
23.01.2018 15:05 5,8 C 99 % 1017,9 hPa 0,0 mm 2,1 km/h (1 Bft) S-SW 195 0 min 0,000 mm 0,0 UV-I 54 W/m 5,7 C 5,8 C 11,3 km/h (2 Bft) 100,00 %
23.01.2018 15:00 5,7 C 99 % 1018,0 hPa 0,0 mm 3,2 km/h (1 Bft) S-SW 213 0 min 0,050 mm 0,0 UV-I 66 W/m 5,6 C 5,7 C 9,7 km/h (2 Bft) 99,17 %
23.01.2018 14:55 5,7 C 99 % 1017,9 hPa 0,0 mm 2,3 km/h (1 Bft) SW 215 0 min 0,000 mm 0,0 UV-I 76 W/m 5,6 C 5,7 C 8,0 km/h (2 Bft) 98,13 %
23.01.2018 14:50 5,7 C 99 % 1018,0 hPa 0,2 mm 3,8 km/h (1 Bft) S-SW 203 0 min 0,000 mm 0,0 UV-I 81 W/m 5,6 C 5,7 C 11,3 km/h (2 Bft) 99,16 %
23.01.2018 14:45 5,7 C 99 % 1018,0 hPa 0,0 mm 3,6 km/h (1 Bft) S-SW 196 0 min 0,000 mm 0,0 UV-I 88 W/m 5,6 C 5,7 C 11,3 km/h (2 Bft) 100,00 %
23.01.2018 14:40 5,7 C 99 % 1018,1 hPa 0,0 mm 3,1 km/h (1 Bft) S 187 5 min 0,000 mm 0,0 UV-I 100 W/m 5,6 C 5,7 C 11,3 km/h (2 Bft) 100,00 %
23.01.2018 14:35 5,6 C 99 % 1018,0 hPa 0,2 mm 2,4 km/h (1 Bft) S-SW 207 5 min 0,000 mm 0,0 UV-I 137 W/m 5,5 C 5,6 C 9,7 km/h (2 Bft) 100,00 %
23.01.2018 14:30 5,4 C 99 % 1018,0 hPa 0,0 mm 3,9 km/h (1 Bft) S-SW 205 5 min 0,000 mm 0,0 UV-I 175 W/m 5,3 C 5,4 C 9,7 km/h (2 Bft) 96,69 %
23.01.2018 14:25 5,3 C 99 % 1018,0 hPa 0,0 mm 3,2 km/h (1 Bft) S-SW 192 5 min 0,000 mm 0,0 UV-I 160 W/m 5,2 C 5,3 C 9,7 km/h (2 Bft) 97,27 %
23.01.2018 14:20 5,2 C 99 % 1018,0 hPa 0,2 mm 5,3 km/h (1 Bft) S-SW 192 5 min 0,000 mm 0,0 UV-I 138 W/m 5,1 C 4,2 C 11,3 km/h (2 Bft) 97,46 %
23.01.2018 14:15 5,1 C 99 % 1018,0 hPa 0,0 mm 3,5 km/h (1 Bft) S 191 5 min 0,000 mm 0,0 UV-I 117 W/m 5,0 C 5,1 C 12,9 km/h (3 Bft) 97,48 %
23.01.2018 14:10 4,9 C 99 % 1018,0 hPa 0,0 mm 6,1 km/h (2 Bft) S 182 0 min 0,000 mm 0,0 UV-I 104 W/m 4,8 C 3,6 C 9,7 km/h (2 Bft) 98,29 %
23.01.2018 14:05 4,8 C 99 % 1018,0 hPa 0,2 mm 5,3 km/h (1 Bft) S 177 0 min 0,000 mm 0,0 UV-I 82 W/m 4,7 C 3,7 C 11,3 km/h (2 Bft) 100,00 %
23.01.2018 14:00 4,7 C 99 % 1018,3 hPa 0,0 mm 3,5 km/h (1 Bft) SW 221 0 min 0,026 mm 0,0 UV-I 65 W/m 4,6 C 4,7 C 8,0 km/h (2 Bft) 100,00 %
23.01.2018 13:55 4,6 C 99 % 1018,4 hPa 0,0 mm 3,3 km/h (1 Bft) SW 221 0 min 0,000 mm 0,0 UV-I 51 W/m 4,5 C 4,6 C 8,0 km/h (2 Bft) 100,00 %
23.01.2018 13:50 4,6 C 99 % 1018,4 hPa 0,0 mm 2,8 km/h (1 Bft) SW 222 0 min 0,000 mm 0,0 UV-I 38 W/m 4,5 C 4,6 C 9,7 km/h (2 Bft) 99,15 %
23.01.2018 13:45 4,5 C 99 % 1018,3 hPa 0,2 mm 2,8 km/h (1 Bft) S-SW 194 0 min 0,000 mm 0,0 UV-I 37 W/m 4,4 C 4,5 C 6,4 km/h (2 Bft) 99,15 %
23.01.2018 13:40 4,4 C 99 % 1018,3 hPa 0,0 mm 3,5 km/h (1 Bft) S-SW 194 0 min 0,000 mm 0,0 UV-I 25 W/m 4,3 C 4,4 C 8,0 km/h (2 Bft) 100,00 %
23.01.2018 13:35 4,4 C 99 % 1018,3 hPa 0,0 mm 4,2 km/h (1 Bft) S-SW 193 0 min 0,000 mm 0,0 UV-I 21 W/m 4,3 C 4,4 C 8,0 km/h (2 Bft) 100,00 %
23.01.2018 13:30 4,3 C 99 % 1018,5 hPa 0,0 mm 5,1 km/h (1 Bft) S-SW 194 0 min 0,000 mm 0,0 UV-I 27 W/m 4,2 C 3,2 C 9,7 km/h (2 Bft) 98,29 %
23.01.2018 13:25 4,2 C 99 % 1018,5 hPa 0,2 mm 3,5 km/h (1 Bft) S-SW 192 0 min 0,000 mm 0,0 UV-I 39 W/m 4,1 C 4,2 C 8,0 km/h (2 Bft) 97,25 %
23.01.2018 13:20 4,1 C 99 % 1018,5 hPa 0,0 mm 2,7 km/h (1 Bft) S-SW 192 0 min 0,000 mm 0,0 UV-I 37 W/m 4,0 C 4,1 C 8,0 km/h (2 Bft) 97,48 %
23.01.2018 13:15 4,1 C 99 % 1018,6 hPa 0,0 mm 2,8 km/h (1 Bft) S-SW 193 0 min 0,000 mm 0,0 UV-I 32 W/m 4,0 C 4,1 C 6,4 km/h (2 Bft) 97,46 %
23.01.2018 13:10 3,9 C 99 % 1018,6 hPa 0,2 mm 3,1 km/h (1 Bft) S-SW 193 0 min 0,000 mm 0,0 UV-I 38 W/m 3,8 C 3,9 C 8,0 km/h (2 Bft) 99,27 %
23.01.2018 13:05 3,9 C 99 % 1018,5 hPa 0,0 mm 1,1 km/h (1 Bft) O-SO 111 0 min 0,000 mm 0,0 UV-I 54 W/m 3,8 C 3,9 C 4,8 km/h (1 Bft) 100,00 %
23.01.2018 13:00 3,8 C 99 % 1018,6 hPa 0,0 mm 0,8 km/h (0 Bft) O-SO 111 0 min 0,025 mm 0,0 UV-I 72 W/m 3,7 C 3,8 C 6,4 km/h (2 Bft) 100,00 %
23.01.2018 12:55 3,7 C 99 % 1018,7 hPa 0,0 mm 0,6 km/h (0 Bft) O-SO 111 0 min 0,000 mm 0,0 UV-I 80 W/m 3,6 C 3,7 C 4,8 km/h (1 Bft) 100,00 %
23.01.2018 12:50 3,7 C 99 % 1018,6 hPa 0,2 mm 0,0 km/h (0 Bft) O-SO 111 0 min 0,000 mm 0,0 UV-I 71 W/m 3,6 C 3,7 C 0,0 km/h (0 Bft) 100,00 %
23.01.2018 12:45 3,6 C 99 % 1018,7 hPa 0,0 mm 0,0 km/h (0 Bft) O-SO 111 0 min 0,000 mm 0,0 UV-I 86 W/m 3,5 C 3,6 C 0,0 km/h (0 Bft) 100,00 %
23.01.2018 12:40 3,4 C 99 % 1018,7 hPa 0,0 mm 0,4 km/h (0 Bft) O-SO 111 0 min 0,000 mm 0,0 UV-I 124 W/m 3,3 C 3,4 C 4,8 km/h (1 Bft) 100,00 %
23.01.2018 12:35 3,4 C 99 % 1018,7 hPa 0,0 mm 0,0 km/h (0 Bft) O-SO 111 0 min 0,000 mm 0,0 UV-I 89 W/m 3,3 C 3,4 C 0,0 km/h (0 Bft) 100,00 %
23.01.2018 12:30 3,4 C 99 % 1018,6 hPa 0,2 mm 0,0 km/h (0 Bft) O-SO 111 0 min 0,001 mm 0,0 UV-I 64 W/m 3,3 C 3,4 C 1,6 km/h (1 Bft) 98,32 %
23.01.2018 12:20 3,3 C 99 % 1018,9 hPa 0,0 mm 3,2 km/h (1 Bft) O-SO 112 0 min 0,000 mm 0,0 UV-I 76 W/m 3,2 C 3,3 C 6,4 km/h (2 Bft) 64,91 %
23.01.2018 12:15 3,2 C 99 % 1019,0 hPa 0,0 mm 3,2 km/h (1 Bft) O-SO 112 0 min 0,000 mm 0,0 UV-I 75 W/m 3,1 C 3,2 C 6,4 km/h (2 Bft) 85,09 %
23.01.2018 12:10 3,2 C 99 % 1018,9 hPa 0,2 mm 0,0 km/h (0 Bft) O-SO 112 0 min 0,000 mm 0,0 UV-I 89 W/m 3,1 C 3,2 C 8,0 km/h (2 Bft) 98,25 %
23.01.2018 12:05 3,1 C 99 % 1018,8 hPa 0,0 mm 0,0 km/h (0 Bft) O-SO 112 0 min 0,000 mm 0,0 UV-I 87 W/m 3,0 C 3,1 C 3,2 km/h (1 Bft) 97,37 %
23.01.2018 12:00 3,0 C 99 % 1018,9 hPa 0,0 mm 0,0 km/h (0 Bft) O-SO 112 0 min 0,025 mm 0,0 UV-I 84 W/m 2,9 C 3,0 C 4,8 km/h (1 Bft) 98,25 %
23.01.2018 11:55 2,9 C 99 % 1019,0 hPa 0,0 mm 1,6 km/h (1 Bft) O-SO 112 0 min 0,000 mm 0,0 UV-I 78 W/m 2,8 C 2,9 C 6,4 km/h (2 Bft) 98,25 %
23.01.2018 11:50 2,8 C 99 % 1019,1 hPa 0,2 mm 0,0 km/h (0 Bft) O-SO 112 0 min 0,000 mm 0,0 UV-I 81 W/m 2,7 C 2,8 C 6,4 km/h (2 Bft) 100,00 %
23.01.2018 11:45 2,7 C 99 % 1019,1 hPa 0,0 mm 0,0 km/h (0 Bft) N 0 0 min 0,000 mm 0,0 UV-I 85 W/m 2,6 C 2,7 C 0,0 km/h (0 Bft) 100,00 %
23.01.2018 11:40 2,6 C 99 % 1019,1 hPa 0,0 mm 0,0 km/h (0 Bft) O-SO 112 0 min 0,000 mm 0,0 UV-I 74 W/m 2,5 C 2,6 C 4,8 km/h (1 Bft) 100,00 %
23.01.2018 11:35 2,5 C 99 % 1019,2 hPa 0,0 mm 3,2 km/h (1 Bft) O-SO 112 0 min 0,000 mm 0,0 UV-I 77 W/m 2,4 C 2,5 C 8,0 km/h (2 Bft) 100,00 %
23.01.2018 11:30 2,4 C 99 % 1019,0 hPa 0,0 mm 1,6 km/h (1 Bft) O-SO 112 0 min 0,000 mm 0,0 UV-I 87 W/m 2,3 C 2,4 C 6,4 km/h (2 Bft) 100,00 %
23.01.2018 11:25 2,3 C 99 % 1019,0 hPa 0,2 mm 3,2 km/h (1 Bft) O-SO 112 0 min 0,000 mm 0,0 UV-I 78 W/m 2,2 C 2,3 C 8,0 km/h (2 Bft) 100,00 %
23.01.2018 11:20 2,2 C 99 % 1019,1 hPa 0,0 mm 1,6 km/h (1 Bft) O-SO 112 0 min 0,000 mm 0,0 UV-I 82 W/m 2,1 C 2,2 C 8,0 km/h (2 Bft) 100,00 %
23.01.2018 11:15 2,1 C 99 % 1019,1 hPa 0,0 mm 0,0 km/h (0 Bft) O-SO 112 0 min 0,000 mm 0,0 UV-I 69 W/m 2,0 C 2,1 C 1,6 km/h (1 Bft) 99,12 %
23.01.2018 11:10 2,0 C 98 % 1019,0 hPa 0,0 mm 0,0 km/h (0 Bft) N 0 0 min 0,000 mm 0,0 UV-I 68 W/m 1,7 C 2,0 C 0,0 km/h (0 Bft) 97,37 %
23.01.2018 11:05 1,9 C 98 % 1019,0 hPa 0,0 mm 0,0 km/h (0 Bft) N 0 0 min 0,000 mm 0,0 UV-I 67 W/m 1,6 C 1,9 C 0,0 km/h (0 Bft) 99,12 %
23.01.2018 11:00 1,8 C 98 % 1019,0 hPa 0,0 mm 0,0 km/h (0 Bft) N 0 0 min 0,025 mm 0,0 UV-I 68 W/m 1,5 C 1,8 C 0,0 km/h (0 Bft) 97,37 %
23.01.2018 10:55 1,8 C 98 % 1018,9 hPa 0,2 mm 0,0 km/h (0 Bft) N 0 0 min 0,000 mm 0,0 UV-I 60 W/m 1,5 C 1,8 C 0,0 km/h (0 Bft) 98,25 %
23.01.2018 10:50 1,7 C 98 % 1018,9 hPa 0,0 mm 0,0 km/h (0 Bft) N 0 0 min 0,000 mm 0,0 UV-I 62 W/m 1,4 C 1,7 C 0,0 km/h (0 Bft) 98,25 %
23.01.2018 10:45 1,7 C 98 % 1018,9 hPa 0,0 mm 0,0 km/h (0 Bft) N 0 0 min 0,000 mm 0,0 UV-I 51 W/m 1,4 C 1,7 C 0,0 km/h (0 Bft) 100,00 %
23.01.2018 10:40 1,6 C 98 % 1018,9 hPa 0,0 mm 0,0 km/h (0 Bft) N 0 0 min 0,000 mm 0,0 UV-I 56 W/m 1,3 C 1,6 C 0,0 km/h (0 Bft) 100,00 %
23.01.2018 10:35 1,6 C 98 % 1018,9 hPa 0,0 mm 0,0 km/h (0 Bft) N 0 0 min 0,000 mm 0,0 UV-I 60 W/m 1,3 C 1,6 C 0,0 km/h (0 Bft) 100,00 %
23.01.2018 10:30 1,5 C 98 % 1019,0 hPa 0,2 mm 0,0 km/h (0 Bft) N 0 0 min 0,000 mm 0,0 UV-I 51 W/m 1,2 C 1,5 C 0,0 km/h (0 Bft) 100,00 %
23.01.2018 10:25 1,4 C 98 % 1019,0 hPa 0,0 mm 0,0 km/h (0 Bft) N 0 0 min 0,000 mm 0,0 UV-I 46 W/m 1,1 C 1,4 C 0,0 km/h (0 Bft) 100,00 %
23.01.2018 10:20 1,4 C 98 % 1018,9 hPa 0,0 mm 0,0 km/h (0 Bft) N 0 0 min 0,000 mm 0,0 UV-I 58 W/m 1,1 C 1,4 C 0,0 km/h (0 Bft) 100,00 %
23.01.2018 10:15 1,3 C 98 % 1018,9 hPa 0,0 mm 0,0 km/h (0 Bft) N 0 0 min 0,000 mm 0,0 UV-I 58 W/m 1,0 C 1,3 C 0,0 km/h (0 Bft) 99,12 %
23.01.2018 10:10 1,3 C 98 % 1018,9 hPa 0,0 mm 0,0 km/h (0 Bft) N 0 0 min 0,000 mm 0,0 UV-I 45 W/m 1,0 C 1,3 C 0,0 km/h (0 Bft) 99,12 %
23.01.2018 10:05 1,3 C 98 % 1018,8 hPa 0,0 mm 0,0 km/h (0 Bft) N 0 0 min 0,000 mm 0,0 UV-I 42 W/m 1,0 C 1,3 C 0,0 km/h (0 Bft) 97,37 %
23.01.2018 10:00 1,3 C 98 % 1018,8 hPa 0,0 mm 1,6 km/h (1 Bft) O-SO 112 0 min 0,000 mm 0,0 UV-I 40 W/m 1,0 C 1,3 C 4,8 km/h (1 Bft) 98,25 %
23.01.2018 09:55 1,2 C 98 % 1018,7 hPa 0,0 mm 1,6 km/h (1 Bft) O-SO 112 0 min 0,000 mm 0,0 UV-I 28 W/m 0,9 C 1,2 C 4,8 km/h (1 Bft) 96,49 %
23.01.2018 09:50 1,2 C 98 % 1018,7 hPa 0,0 mm 0,0 km/h (0 Bft) O-SO 112 0 min 0,000 mm 0,0 UV-I 26 W/m 0,9 C 1,2 C 3,2 km/h (1 Bft) 97,37 %
23.01.2018 09:45 1,2 C 98 % 1018,8 hPa 0,0 mm 0,0 km/h (0 Bft) O-SO 112 0 min 0,000 mm 0,0 UV-I 25 W/m 0,9 C 1,2 C 3,2 km/h (1 Bft) 100,00 %
23.01.2018 09:40 1,2 C 98 % 1018,8 hPa 0,0 mm 3,2 km/h (1 Bft) O-SO 112 0 min 0,000 mm 0,0 UV-I 35 W/m 0,9 C 1,2 C 4,8 km/h (1 Bft) 100,00 %
23.01.2018 09:35 1,1 C 98 % 1018,8 hPa 0,0 mm 0,0 km/h (0 Bft) N 0 0 min 0,000 mm 0,0 UV-I 26 W/m 0,8 C 1,1 C 0,0 km/h (0 Bft) 100,00 %
23.01.2018 09:30 1,1 C 98 % 1018,8 hPa 0,2 mm 1,6 km/h (1 Bft) O-SO 112 0 min 0,000 mm 0,0 UV-I 27 W/m 0,8 C 1,1 C 4,8 km/h (1 Bft) 100,00 %
23.01.2018 09:25 1,0 C 98 % 1018,8 hPa 0,0 mm 0,0 km/h (0 Bft) N 0 0 min 0,000 mm 0,0 UV-I 29 W/m 0,7 C 1,0 C 0,0 km/h (0 Bft) 100,00 %
23.01.2018 09:20 1,0 C 98 % 1018,6 hPa 0,0 mm 1,6 km/h (1 Bft) O-SO 112 0 min 0,000 mm 0,0 UV-I 34 W/m 0,7 C 1,0 C 4,8 km/h (1 Bft) 100,00 %
23.01.2018 09:15 0,9 C 98 % 1018,6 hPa 0,0 mm 0,0 km/h (0 Bft) N 0 0 min 0,000 mm 0,0 UV-I 22 W/m 0,6 C 0,9 C 0,0 km/h (0 Bft) 99,12 %
23.01.2018 09:10 0,9 C 98 % 1018,6 hPa 0,0 mm 0,0 km/h (0 Bft) N 0 0 min 0,000 mm 0,0 UV-I 19 W/m 0,6 C 0,9 C 0,0 km/h (0 Bft) 100,00 %
23.01.2018 09:05 0,9 C 98 % 1018,6 hPa 0,0 mm 0,0 km/h (0 Bft) N 0 0 min 0,000 mm 0,0 UV-I 16 W/m 0,6 C 0,9 C 0,0 km/h (0 Bft) 97,37 %
23.01.2018 09:00 0,9 C 98 % 1018,5 hPa 0,0 mm 0,0 km/h (0 Bft) N 0 0 min 0,000 mm 0,0 UV-I 11 W/m 0,6 C 0,9 C 0,0 km/h (0 Bft) 96,49 %
23.01.2018 08:55 0,9 C 98 % 1018,6 hPa 0,0 mm 0,0 km/h (0 Bft) N 0 0 min 0,000 mm 0,0 UV-I 9 W/m 0,6 C 0,9 C 0,0 km/h (0 Bft) 95,61 %
23.01.2018 08:50 0,8 C 98 % 1018,6 hPa 0,2 mm 0,0 km/h (0 Bft) N 0 0 min 0,000 mm 0,0 UV-I 8 W/m 0,5 C 0,8 C 0,0 km/h (0 Bft) 98,25 %
23.01.2018 08:45 0,8 C 98 % 1018,4 hPa 0,0 mm 0,0 km/h (0 Bft) N 0 0 min 0,000 mm 0,0 UV-I 6 W/m 0,5 C 0,8 C 0,0 km/h (0 Bft) 99,12 %
23.01.2018 08:40 0,8 C 98 % 1018,3 hPa 0,2 mm 1,6 km/h (1 Bft) O-SO 112 0 min 0,000 mm 0,0 UV-I 5 W/m 0,5 C 0,8 C 4,8 km/h (1 Bft) 100,00 %
23.01.2018 08:35 0,8 C 98 % 1018,2 hPa 0,2 mm 1,6 km/h (1 Bft) O-SO 112 0 min 0,000 mm 0,0 UV-I 3 W/m 0,5 C 0,8 C 4,8 km/h (1 Bft) 100,00 %
23.01.2018 08:30 0,8 C 98 % 1018,3 hPa 0,0 mm 0,0 km/h (0 Bft) N 0 0 min 0,000 mm 0,0 UV-I 0 W/m 0,5 C 0,8 C 0,0 km/h (0 Bft) 99,12 %
23.01.2018 08:25 0,8 C 98 % 1018,2 hPa 0,2 mm 0,0 km/h (0 Bft) N 0 0 min 0,000 mm 0,0 UV-I 0 W/m 0,5 C 0,8 C 0,0 km/h (0 Bft) 100,00 %
23.01.2018 08:20 0,8 C 98 % 1018,3 hPa 0,0 mm 0,0 km/h (0 Bft) N 0 0 min 0,000 mm 0,0 UV-I 0 W/m 0,5 C 0,8 C 0,0 km/h (0 Bft) 99,12 %
23.01.2018 08:15 0,8 C 98 % 1018,2 hPa 0,2 mm 1,6 km/h (1 Bft) O-SO 112 0 min 0,000 mm 0,0 UV-I 0 W/m 0,5 C 0,8 C 3,2 km/h (1 Bft) 100,00 %
23.01.2018 08:10 0,8 C 98 % 1018,0 hPa 0,0 mm 0,0 km/h (0 Bft) O-SO 112 0 min 0,000 mm 0,0 UV-I 0 W/m 0,5 C 0,8 C 3,2 km/h (1 Bft) 100,00 %
23.01.2018 08:05 0,7 C 98 % 1018,0 hPa 0,0 mm 0,0 km/h (0 Bft) N 0 0 min 0,000 mm 0,0 UV-I 0 W/m 0,4 C 0,7 C 0,0 km/h (0 Bft) 98,25 %
23.01.2018 08:00 0,7 C 98 % 1017,8 hPa 0,2 mm 0,0 km/h (0 Bft) N 0 0 min 0,000 mm 0,0 UV-I 0 W/m 0,4 C 0,7 C 0,0 km/h (0 Bft) 98,25 %
23.01.2018 07:55 0,7 C 98 % 1018,0 hPa 0,0 mm 0,0 km/h (0 Bft) N 0 0 min 0,000 mm 0,0 UV-I 0 W/m 0,4 C 0,7 C 0,0 km/h (0 Bft) 97,37 %
23.01.2018 07:50 0,7 C 98 % 1017,8 hPa 0,0 mm 0,0 km/h (0 Bft) N 0 0 min 0,000 mm 0,0 UV-I 0 W/m 0,4 C 0,7 C 0,0 km/h (0 Bft) 97,37 %
23.01.2018 07:45 0,7 C 98 % 1017,6 hPa 0,0 mm 0,0 km/h (0 Bft) N 0 0 min 0,000 mm 0,0 UV-I 0 W/m 0,4 C 0,7 C 0,0 km/h (0 Bft) 99,12 %
23.01.2018 07:40 0,7 C 98 % 1017,4 hPa 0,0 mm 0,0 km/h (0 Bft) N 0 0 min 0,000 mm 0,0 UV-I 0 W/m 0,4 C 0,7 C 0,0 km/h (0 Bft) 100,00 %
23.01.2018 07:35 0,7 C 98 % 1017,5 hPa 0,0 mm 0,0 km/h (0 Bft) N 0 0 min 0,000 mm 0,0 UV-I 0 W/m 0,4 C 0,7 C 0,0 km/h (0 Bft) 100,00 %
23.01.2018 07:30 0,6 C 98 % 1017,4 hPa 0,0 mm 0,0 km/h (0 Bft) N 0 0 min 0,000 mm 0,0 UV-I 0 W/m 0,3 C 0,6 C 0,0 km/h (0 Bft) 100,00 %
23.01.2018 07:25 0,6 C 98 % 1017,4 hPa 0,0 mm 0,0 km/h (0 Bft) N 0 0 min 0,000 mm 0,0 UV-I 0 W/m 0,3 C 0,6 C 0,0 km/h (0 Bft) 100,00 %
23.01.2018 07:20 0,6 C 98 % 1017,2 hPa 0,0 mm 0,0 km/h (0 Bft) N 0 0 min 0,000 mm 0,0 UV-I 0 W/m 0,3 C 0,6 C 0,0 km/h (0 Bft) 100,00 %
23.01.2018 07:15 0,6 C 98 % 1017,2 hPa 0,0 mm 0,0 km/h (0 Bft) N 0 0 min 0,000 mm 0,0 UV-I 0 W/m 0,3 C 0,6 C 0,0 km/h (0 Bft) 100,00 %
23.01.2018 07:10 0,6 C 98 % 1017,2 hPa 0,0 mm 0,0 km/h (0 Bft) N 0 0 min 0,000 mm 0,0 UV-I 0 W/m 0,3 C 0,6 C 0,0 km/h (0 Bft) 100,00 %
23.01.2018 07:05 0,6 C 98 % 1017,2 hPa 0,0 mm 0,0 km/h (0 Bft) N 0 0 min 0,000 mm 0,0 UV-I 0 W/m 0,3 C 0,6 C 0,0 km/h (0 Bft) 100,00 %
23.01.2018 07:00 0,6 C 98 % 1017,2 hPa 0,0 mm 0,0 km/h (0 Bft) N 0 0 min 0,000 mm 0,0 UV-I 0 W/m 0,3 C 0,6 C 0,0 km/h (0 Bft) 97,37 %
23.01.2018 06:55 0,6 C 98 % 1017,0 hPa 0,0 mm 0,0 km/h (0 Bft) N 0 0 min 0,000 mm 0,0 UV-I 0 W/m 0,3 C 0,6 C 0,0 km/h (0 Bft) 96,49 %
23.01.2018 06:50 0,5 C 97 % 1016,9 hPa 0,0 mm 0,0 km/h (0 Bft) N 0 0 min 0,000 mm 0,0 UV-I 0 W/m 0,1 C 0,5 C 0,0 km/h (0 Bft) 98,25 %
23.01.2018 06:45 0,5 C 97 % 1017,0 hPa 0,2 mm 0,0 km/h (0 Bft) N 0 0 min 0,000 mm 0,0 UV-I 0 W/m 0,1 C 0,5 C 0,0 km/h (0 Bft) 99,12 %
23.01.2018 06:40 0,5 C 97 % 1017,1 hPa 0,0 mm 0,0 km/h (0 Bft) N 0 0 min 0,000 mm 0,0 UV-I 0 W/m 0,1 C 0,5 C 0,0 km/h (0 Bft) 100,00 %
23.01.2018 06:35 0,5 C 97 % 1017,1 hPa 0,0 mm 0,0 km/h (0 Bft) N 0 0 min 0,000 mm 0,0 UV-I 0 W/m 0,1 C 0,5 C 0,0 km/h (0 Bft) 100,00 %
23.01.2018 06:30 0,4 C 97 % 1017,0 hPa 0,0 mm 0,0 km/h (0 Bft) N 0 0 min 0,000 mm 0,0 UV-I 0 W/m -0,0 C 0,4 C 0,0 km/h (0 Bft) 100,00 %
23.01.2018 06:25 0,4 C 97 % 1017,0 hPa 0,0 mm 0,0 km/h (0 Bft) O-SO 112 0 min 0,000 mm 0,0 UV-I 0 W/m -0,0 C 0,4 C 1,6 km/h (1 Bft) 100,00 %
23.01.2018 06:20 0,4 C 97 % 1016,9 hPa 0,0 mm 0,0 km/h (0 Bft) N 0 0 min 0,000 mm 0,0 UV-I 0 W/m -0,0 C 0,4 C 0,0 km/h (0 Bft) 100,00 %
23.01.2018 06:15 0,4 C 97 % 1016,9 hPa 0,0 mm 0,0 km/h (0 Bft) N 0 0 min 0,000 mm 0,0 UV-I 0 W/m -0,0 C 0,4 C 0,0 km/h (0 Bft) 100,00 %
23.01.2018 06:10 0,4 C 97 % 1016,9 hPa 0,2 mm 0,0 km/h (0 Bft) N 0 0 min 0,000 mm 0,0 UV-I 0 W/m -0,0 C 0,4 C 0,0 km/h (0 Bft) 100,00 %
23.01.2018 06:05 0,4 C 97 % 1016,9 hPa 0,0 mm 0,0 km/h (0 Bft) N 0 0 min 0,000 mm 0,0 UV-I 0 W/m -0,0 C 0,4 C 0,0 km/h (0 Bft) 99,12 %
23.01.2018 06:00 0,4 C 97 % 1016,8 hPa 0,0 mm 0,0 km/h (0 Bft) N 0 0 min 0,000 mm 0,0 UV-I 0 W/m -0,0 C 0,4 C 0,0 km/h (0 Bft) 98,25 %
23.01.2018 05:55 0,4 C 97 % 1016,8 hPa 0,0 mm 0,0 km/h (0 Bft) N 0 0 min 0,000 mm 0,0 UV-I 0 W/m -0,0 C 0,4 C 0,0 km/h (0 Bft) 97,37 %
23.01.2018 05:50 0,4 C 97 % 1016,7 hPa 0,0 mm 0,0 km/h (0 Bft) N 0 0 min 0,000 mm 0,0 UV-I 0 W/m -0,0 C 0,4 C 0,0 km/h (0 Bft) 97,37 %
23.01.2018 05:45 0,4 C 97 % 1016,6 hPa 0,0 mm 0,0 km/h (0 Bft) N 0 0 min 0,000 mm 0,0 UV-I 0 W/m -0,0 C 0,4 C 0,0 km/h (0 Bft) 98,25 %
23.01.2018 05:40 0,4 C 97 % 1016,4 hPa 0,0 mm 0,0 km/h (0 Bft) N 0 0 min 0,000 mm 0,0 UV-I 0 W/m -0,0 C 0,4 C 0,0 km/h (0 Bft) 100,00 %
23.01.2018 05:35 0,5 C 97 % 1016,4 hPa 0,0 mm 0,0 km/h (0 Bft) N 0 0 min 0,000 mm 0,0 UV-I 0 W/m 0,1 C 0,5 C 0,0 km/h (0 Bft) 100,00 %
23.01.2018 05:30 0,5 C 97 % 1016,4 hPa 0,0 mm 0,0 km/h (0 Bft) N 0 0 min 0,000 mm 0,0 UV-I 0 W/m 0,1 C 0,5 C 0,0 km/h (0 Bft) 100,00 %
23.01.2018 05:25 0,5 C 97 % 1016,4 hPa 0,0 mm 0,0 km/h (0 Bft) N 0 0 min 0,000 mm 0,0 UV-I 0 W/m 0,1 C 0,5 C 0,0 km/h (0 Bft) 100,00 %
23.01.2018 05:20 0,5 C 97 % 1016,4 hPa 0,0 mm 0,0 km/h (0 Bft) N 0 0 min 0,000 mm 0,0 UV-I 0 W/m 0,1 C 0,5 C 0,0 km/h (0 Bft) 100,00 %
23.01.2018 05:15 0,6 C 97 % 1016,3 hPa 0,0 mm 0,0 km/h (0 Bft) N 0 0 min 0,000 mm 0,0 UV-I 0 W/m 0,2 C 0,6 C 0,0 km/h (0 Bft) 100,00 %
23.01.2018 05:10 0,6 C 97 % 1016,3 hPa 0,0 mm 0,0 km/h (0 Bft) N 0 0 min 0,000 mm 0,0 UV-I 0 W/m 0,2 C 0,6 C 0,0 km/h (0 Bft) 100,00 %
23.01.2018 05:05 0,6 C 97 % 1016,3 hPa 0,0 mm 0,0 km/h (0 Bft) N 0 0 min 0,000 mm 0,0 UV-I 0 W/m 0,2 C 0,6 C 0,0 km/h (0 Bft) 100,00 %
23.01.2018 05:00 0,6 C 97 % 1016,2 hPa 0,0 mm 0,0 km/h (0 Bft) N 0 0 min 0,000 mm 0,0 UV-I 0 W/m 0,2 C 0,6 C 0,0 km/h (0 Bft) 97,37 %
23.01.2018 04:55 0,6 C 97 % 1016,1 hPa 0,0 mm 0,0 km/h (0 Bft) N 0 0 min 0,000 mm 0,0 UV-I 0 W/m 0,2 C 0,6 C 0,0 km/h (0 Bft) 97,37 %
23.01.2018 04:50 0,6 C 97 % 1016,1 hPa 0,0 mm 0,0 km/h (0 Bft) N 0 0 min 0,000 mm 0,0 UV-I 0 W/m 0,2 C 0,6 C 0,0 km/h (0 Bft) 98,25 %
23.01.2018 04:45 0,6 C 97 % 1016,0 hPa 0,0 mm 0,0 km/h (0 Bft) N 0 0 min 0,000 mm 0,0 UV-I 0 W/m 0,2 C 0,6 C 0,0 km/h (0 Bft) 98,25 %
23.01.2018 04:40 0,6 C 97 % 1015,9 hPa 0,0 mm 0,0 km/h (0 Bft) N 0 0 min 0,000 mm 0,0 UV-I 0 W/m 0,2 C 0,6 C 0,0 km/h (0 Bft) 99,12 %
23.01.2018 04:35 0,7 C 97 % 1016,0 hPa 0,0 mm 0,0 km/h (0 Bft) O-SO 112 0 min 0,000 mm 0,0 UV-I 0 W/m 0,3 C 0,7 C 1,6 km/h (1 Bft) 100,00 %
23.01.2018 04:30 0,7 C 97 % 1015,8 hPa 0,0 mm 0,0 km/h (0 Bft) N 0 0 min 0,000 mm 0,0 UV-I 0 W/m 0,3 C 0,7 C 0,0 km/h (0 Bft) 100,00 %
23.01.2018 04:25 0,7 C 97 % 1015,7 hPa 0,0 mm 0,0 km/h (0 Bft) N 0 0 min 0,000 mm 0,0 UV-I 0 W/m 0,3 C 0,7 C 0,0 km/h (0 Bft) 99,12 %
23.01.2018 04:20 0,7 C 97 % 1015,4 hPa 0,0 mm 0,0 km/h (0 Bft) N 0 0 min 0,000 mm 0,0 UV-I 0 W/m 0,3 C 0,7 C 0,0 km/h (0 Bft) 99,12 %
23.01.2018 04:15 0,7 C 97 % 1015,4 hPa 0,0 mm 1,6 km/h (1 Bft) O-SO 112 0 min 0,000 mm 0,0 UV-I 0 W/m 0,3 C 0,7 C 4,8 km/h (1 Bft) 99,12 %
23.01.2018 04:10 0,7 C 97 % 1015,6 hPa 0,0 mm 0,0 km/h (0 Bft) O-SO 112 0 min 0,000 mm 0,0 UV-I 0 W/m 0,3 C 0,7 C 4,8 km/h (1 Bft) 100,00 %
23.01.2018 04:05 0,7 C 97 % 1015,5 hPa 0,0 mm 0,0 km/h (0 Bft) N 0 0 min 0,000 mm 0,0 UV-I 0 W/m 0,3 C 0,7 C 0,0 km/h (0 Bft) 100,00 %
23.01.2018 04:00 0,7 C 97 % 1015,5 hPa 0,0 mm 0,0 km/h (0 Bft) N 0 0 min 0,000 mm 0,0 UV-I 0 W/m 0,3 C 0,7 C 0,0 km/h (0 Bft) 99,12 %
23.01.2018 03:55 0,7 C 97 % 1015,4 hPa 0,0 mm 0,0 km/h (0 Bft) N 0 0 min 0,000 mm 0,0 UV-I 0 W/m 0,3 C 0,7 C 0,0 km/h (0 Bft) 98,25 %
23.01.2018 03:50 0,7 C 97 % 1015,2 hPa 0,0 mm 0,0 km/h (0 Bft) N 0 0 min 0,000 mm 0,0 UV-I 0 W/m 0,3 C 0,7 C 0,0 km/h (0 Bft) 97,37 %
23.01.2018 03:45 0,7 C 97 % 1015,2 hPa 0,0 mm 0,0 km/h (0 Bft) N 0 0 min 0,000 mm 0,0 UV-I 0 W/m 0,3 C 0,7 C 0,0 km/h (0 Bft) 97,37 %
23.01.2018 03:40 0,7 C 97 % 1015,1 hPa 0,0 mm 0,0 km/h (0 Bft) N 0 0 min 0,000 mm 0,0 UV-I 0 W/m 0,3 C 0,7 C 0,0 km/h (0 Bft) 99,12 %
23.01.2018 03:35 0,7 C 97 % 1015,3 hPa 0,0 mm 0,0 km/h (0 Bft) N 0 0 min 0,000 mm 0,0 UV-I 0 W/m 0,3 C 0,7 C 0,0 km/h (0 Bft) 100,00 %
23.01.2018 03:30 0,7 C 97 % 1015,2 hPa 0,0 mm 0,0 km/h (0 Bft) N 0 0 min 0,000 mm 0,0 UV-I 0 W/m 0,3 C 0,7 C 0,0 km/h (0 Bft) 100,00 %
23.01.2018 03:25 0,7 C 97 % 1015,3 hPa 0,0 mm 0,0 km/h (0 Bft) N 0 0 min 0,000 mm 0,0 UV-I 0 W/m 0,3 C 0,7 C 0,0 km/h (0 Bft) 100,00 %
23.01.2018 03:20 0,7 C 97 % 1015,3 hPa 0,0 mm 0,0 km/h (0 Bft) N 0 0 min 0,000 mm 0,0 UV-I 0 W/m 0,3 C 0,7 C 0,0 km/h (0 Bft) 100,00 %
23.01.2018 03:15 0,7 C 97 % 1015,0 hPa 0,0 mm 0,0 km/h (0 Bft) N 0 0 min 0,000 mm 0,0 UV-I 0 W/m 0,3 C 0,7 C 0,0 km/h (0 Bft) 100,00 %
23.01.2018 03:10 0,7 C 97 % 1015,0 hPa 0,0 mm 0,0 km/h (0 Bft) N 0 0 min 0,000 mm 0,0 UV-I 0 W/m 0,3 C 0,7 C 0,0 km/h (0 Bft) 100,00 %
23.01.2018 03:05 0,7 C 97 % 1014,9 hPa 0,0 mm 0,0 km/h (0 Bft) N 0 0 min 0,000 mm 0,0 UV-I 0 W/m 0,3 C 0,7 C 0,0 km/h (0 Bft) 100,00 %
23.01.2018 03:00 0,7 C 97 % 1015,0 hPa 0,0 mm 0,0 km/h (0 Bft) N 0 0 min 0,000 mm 0,0 UV-I 0 W/m 0,3 C 0,7 C 0,0 km/h (0 Bft) 98,25 %
23.01.2018 02:55 0,7 C 97 % 1014,8 hPa 0,0 mm 0,0 km/h (0 Bft) N 0 0 min 0,000 mm 0,0 UV-I 0 W/m 0,3 C 0,7 C 0,0 km/h (0 Bft) 98,25 %
23.01.2018 02:50 0,7 C 97 % 1014,7 hPa 0,0 mm 0,0 km/h (0 Bft) N 0 0 min 0,000 mm 0,0 UV-I 0 W/m 0,3 C 0,7 C 0,0 km/h (0 Bft) 97,37 %
23.01.2018 02:45 0,7 C 97 % 1014,8 hPa 0,0 mm 0,0 km/h (0 Bft) N 0 0 min 0,000 mm 0,0 UV-I 0 W/m 0,3 C 0,7 C 0,0 km/h (0 Bft) 98,25 %
23.01.2018 02:40 0,7 C 97 % 1014,7 hPa 0,0 mm 0,0 km/h (0 Bft) N 0 0 min 0,000 mm 0,0 UV-I 0 W/m 0,3 C 0,7 C 0,0 km/h (0 Bft) 98,25 %
23.01.2018 02:35 0,7 C 97 % 1014,7 hPa 0,0 mm 0,0 km/h (0 Bft) N 0 0 min 0,000 mm 0,0 UV-I 0 W/m 0,3 C 0,7 C 0,0 km/h (0 Bft) 100,00 %
23.01.2018 02:30 0,7 C 97 % 1014,6 hPa 0,0 mm 0,0 km/h (0 Bft) N 0 0 min 0,000 mm 0,0 UV-I 0 W/m 0,3 C 0,7 C 0,0 km/h (0 Bft) 100,00 %
23.01.2018 02:25 0,7 C 97 % 1014,7 hPa 0,0 mm 0,0 km/h (0 Bft) N 0 0 min 0,000 mm 0,0 UV-I 0 W/m 0,3 C 0,7 C 0,0 km/h (0 Bft) 100,00 %
23.01.2018 02:20 0,7 C 97 % 1014,5 hPa 0,0 mm 0,0 km/h (0 Bft) N 0 0 min 0,000 mm 0,0 UV-I 0 W/m 0,3 C 0,7 C 0,0 km/h (0 Bft) 100,00 %
23.01.2018 02:15 0,7 C 97 % 1014,4 hPa 0,0 mm 0,0 km/h (0 Bft) N 0 0 min 0,000 mm 0,0 UV-I 0 W/m 0,3 C 0,7 C 0,0 km/h (0 Bft) 100,00 %
23.01.2018 02:10 0,7 C 97 % 1014,5 hPa 0,0 mm 0,0 km/h (0 Bft) N 0 0 min 0,000 mm 0,0 UV-I 0 W/m 0,3 C 0,7 C 0,0 km/h (0 Bft) 100,00 %
23.01.2018 02:05 0,7 C 97 % 1014,4 hPa 0,0 mm 0,0 km/h (0 Bft) N 0 0 min 0,000 mm 0,0 UV-I 0 W/m 0,3 C 0,7 C 0,0 km/h (0 Bft) 100,00 %
23.01.2018 02:00 0,7 C 97 % 1014,4 hPa 0,0 mm 0,0 km/h (0 Bft) N 0 0 min 0,000 mm 0,0 UV-I 0 W/m 0,3 C 0,7 C 0,0 km/h (0 Bft) 100,00 %
23.01.2018 01:55 0,7 C 97 % 1014,3 hPa 0,0 mm 0,0 km/h (0 Bft) N 0 0 min 0,000 mm 0,0 UV-I 0 W/m 0,3 C 0,7 C 0,0 km/h (0 Bft) 98,25 %
23.01.2018 01:50 0,7 C 97 % 1014,2 hPa 0,0 mm 0,0 km/h (0 Bft) N 0 0 min 0,000 mm 0,0 UV-I 0 W/m 0,3 C 0,7 C 0,0 km/h (0 Bft) 98,25 %
23.01.2018 01:45 0,7 C 97 % 1014,1 hPa 0,0 mm 0,0 km/h (0 Bft) N 0 0 min 0,000 mm 0,0 UV-I 0 W/m 0,3 C 0,7 C 0,0 km/h (0 Bft) 98,25 %
23.01.2018 01:40 0,7 C 97 % 1013,9 hPa 0,0 mm 0,0 km/h (0 Bft) N 0 0 min 0,000 mm 0,0 UV-I 0 W/m 0,3 C 0,7 C 0,0 km/h (0 Bft) 97,37 %
23.01.2018 01:35 0,7 C 97 % 1014,0 hPa 0,0 mm 0,0 km/h (0 Bft) N 0 0 min 0,000 mm 0,0 UV-I 0 W/m 0,3 C 0,7 C 0,0 km/h (0 Bft) 100,00 %
23.01.2018 01:30 0,7 C 97 % 1014,0 hPa 0,0 mm 0,0 km/h (0 Bft) N 0 0 min 0,000 mm 0,0 UV-I 0 W/m 0,3 C 0,7 C 0,0 km/h (0 Bft) 100,00 %
23.01.2018 01:25 0,7 C 97 % 1014,0 hPa 0,0 mm 0,0 km/h (0 Bft) N 0 0 min 0,000 mm 0,0 UV-I 0 W/m 0,3 C 0,7 C 0,0 km/h (0 Bft) 100,00 %
23.01.2018 01:20 0,7 C 97 % 1013,9 hPa 0,0 mm 0,0 km/h (0 Bft) N 0 0 min 0,000 mm 0,0 UV-I 0 W/m 0,3 C 0,7 C 0,0 km/h (0 Bft) 100,00 %
23.01.2018 01:15 0,7 C 97 % 1014,0 hPa 0,0 mm 0,0 km/h (0 Bft) N 0 0 min 0,000 mm 0,0 UV-I 0 W/m 0,3 C 0,7 C 0,0 km/h (0 Bft) 100,00 %
23.01.2018 01:10 0,7 C 97 % 1013,8 hPa 0,0 mm 0,0 km/h (0 Bft) N 0 0 min 0,000 mm 0,0 UV-I 0 W/m 0,3 C 0,7 C 0,0 km/h (0 Bft) 100,00 %
23.01.2018 01:05 0,7 C 97 % 1013,9 hPa 0,2 mm 0,0 km/h (0 Bft) N 0 0 min 0,000 mm 0,0 UV-I 0 W/m 0,3 C 0,7 C 0,0 km/h (0 Bft) 100,00 %
23.01.2018 01:00 0,7 C 97 % 1013,9 hPa 0,0 mm 0,0 km/h (0 Bft) N 0 0 min 0,000 mm 0,0 UV-I 0 W/m 0,3 C 0,7 C 0,0 km/h (0 Bft) 100,00 %
23.01.2018 00:55 0,7 C 97 % 1013,8 hPa 0,0 mm 0,0 km/h (0 Bft) N 0 0 min 0,000 mm 0,0 UV-I 0 W/m 0,3 C 0,7 C 0,0 km/h (0 Bft) 98,25 %
23.01.2018 00:50 0,7 C 97 % 1013,7 hPa 0,0 mm 0,0 km/h (0 Bft) N 0 0 min 0,000 mm 0,0 UV-I 0 W/m 0,3 C 0,7 C 0,0 km/h (0 Bft) 97,37 %
23.01.2018 00:45 0,7 C 97 % 1013,6 hPa 0,0 mm 0,0 km/h (0 Bft) N 0 0 min 0,000 mm 0,0 UV-I 0 W/m 0,3 C 0,7 C 0,0 km/h (0 Bft) 96,49 %
23.01.2018 00:40 0,7 C 97 % 1013,5 hPa 0,0 mm 0,0 km/h (0 Bft) N 0 0 min 0,000 mm 0,0 UV-I 0 W/m 0,3 C 0,7 C 0,0 km/h (0 Bft) 98,25 %
23.01.2018 00:35 0,7 C 97 % 1013,3 hPa 0,0 mm 0,0 km/h (0 Bft) N 0 0 min 0,000 mm 0,0 UV-I 0 W/m 0,3 C 0,7 C 0,0 km/h (0 Bft) 100,00 %
23.01.2018 00:30 0,7 C 97 % 1013,1 hPa 0,0 mm 0,0 km/h (0 Bft) N 0 0 min 0,000 mm 0,0 UV-I 0 W/m 0,3 C 0,7 C 0,0 km/h (0 Bft) 99,12 %
23.01.2018 00:25 0,7 C 97 % 1013,0 hPa 0,0 mm 0,0 km/h (0 Bft) N 0 0 min 0,000 mm 0,0 UV-I 0 W/m 0,3 C 0,7 C 0,0 km/h (0 Bft) 100,00 %
23.01.2018 00:20 0,7 C 97 % 1012,8 hPa 0,0 mm 0,0 km/h (0 Bft) N 0 0 min 0,000 mm 0,0 UV-I 0 W/m 0,3 C 0,7 C 0,0 km/h (0 Bft) 99,12 %
23.01.2018 00:15 0,7 C 97 % 1012,7 hPa 0,0 mm 0,0 km/h (0 Bft) N 0 0 min 0,000 mm 0,0 UV-I 0 W/m 0,3 C 0,7 C 0,0 km/h (0 Bft) 100,00 %
23.01.2018 00:10 0,7 C 97 % 1012,6 hPa 0,0 mm 0,0 km/h (0 Bft) N 0 0 min 0,000 mm 0,0 UV-I 0 W/m 0,3 C 0,7 C 0,0 km/h (0 Bft) 100,00 %
23.01.2018 00:05 0,7 C 97 % 1012,5 hPa 0,0 mm 0,0 km/h (0 Bft) N 0 0 min 0,000 mm 0,0 UV-I 0 W/m 0,3 C 0,7 C 0,0 km/h (0 Bft) 100,00 %
23.01.2018 00:00 0,7 C 97 % 1012,4 hPa 0,0 mm 0,0 km/h (0 Bft) N 0 0 min 0,000 mm 0,0 UV-I 0 W/m 0,3 C 0,7 C 0,0 km/h (0 Bft) 100,00 %
22.01.2018 23:55 0,7 C 97 % 1012,7 hPa 0,0 mm 0,0 km/h (0 Bft) N 0 0 min 0,000 mm 0,0 UV-I 0 W/m 0,3 C 0,7 C 0,0 km/h (0 Bft) 100,00 %
22.01.2018 23:50 0,7 C 97 % 1012,5 hPa 0,0 mm 0,0 km/h (0 Bft) N 0 0 min 0,000 mm 0,0 UV-I 0 W/m 0,3 C 0,7 C 0,0 km/h (0 Bft) 97,37 %
22.01.2018 23:45 0,7 C 97 % 1012,2 hPa 0,0 mm 0,0 km/h (0 Bft) N 0 0 min 0,000 mm 0,0 UV-I 0 W/m 0,3 C 0,7 C 0,0 km/h (0 Bft) 98,25 %
22.01.2018 23:40 0,7 C 97 % 1012,2 hPa 0,0 mm 0,0 km/h (0 Bft) O-SO 112 0 min 0,000 mm 0,0 UV-I 0 W/m 0,3 C 0,7 C 3,2 km/h (1 Bft) 97,37 %
22.01.2018 23:35 0,7 C 97 % 1012,2 hPa 0,0 mm 0,0 km/h (0 Bft) N 0 0 min 0,000 mm 0,0 UV-I 0 W/m 0,3 C 0,7 C 0,0 km/h (0 Bft) 98,25 %
22.01.2018 23:30 0,7 C 97 % 1012,7 hPa 0,0 mm 0,0 km/h (0 Bft) N 0 0 min 0,000 mm 0,0 UV-I 0 W/m 0,3 C 0,7 C 0,0 km/h (0 Bft) 100,00 %
22.01.2018 23:25 0,7 C 97 % 1012,5 hPa 0,0 mm 0,0 km/h (0 Bft) N 0 0 min 0,000 mm 0,0 UV-I 0 W/m 0,3 C 0,7 C 0,0 km/h (0 Bft) 100,00 %
22.01.2018 23:20 0,7 C 97 % 1012,3 hPa 0,0 mm 0,0 km/h (0 Bft) N 0 0 min 0,000 mm 0,0 UV-I 0 W/m 0,3 C 0,7 C 0,0 km/h (0 Bft) 100,00 %
22.01.2018 23:15 0,7 C 97 % 1012,3 hPa 0,0 mm 0,0 km/h (0 Bft) N 0 0 min 0,000 mm 0,0 UV-I 0 W/m 0,3 C 0,7 C 0,0 km/h (0 Bft) 100,00 %
22.01.2018 23:10 0,7 C 97 % 1012,1 hPa 0,0 mm 0,0 km/h (0 Bft) N 0 0 min 0,000 mm 0,0 UV-I 0 W/m 0,3 C 0,7 C 0,0 km/h (0 Bft) 99,12 %
22.01.2018 23:05 0,7 C 97 % 1012,0 hPa 0,0 mm 0,0 km/h (0 Bft) N 0 0 min 0,000 mm 0,0 UV-I 0 W/m 0,3 C 0,7 C 0,0 km/h (0 Bft) 100,00 %
22.01.2018 23:00 0,7 C 97 % 1011,8 hPa 0,0 mm 0,0 km/h (0 Bft) N 0 0 min 0,000 mm 0,0 UV-I 0 W/m 0,3 C 0,7 C 0,0 km/h (0 Bft) 100,00 %
_ Min-Zeit 05:35 23:00 23:00 - 23:00 - - - - - - 05:40 05:40 23:00 12:20
Minimum _ 0,4 C 97 % 1011,8 hPa - 0,0 km/h (0 Bft) - - - - - - -0,0 C 0,4 C 0,0 km/h (0 Bft) 64,91 %
_ Max-Zeit 14:55 11:15 11:35 21:30 21:45 - - 14:15 15:00 23:00 14:30 15:05 15:05 21:05 23:00
Maximum _ 5,8 C 99 % 1019,2 hPa 0,4 mm 12,9 km/h
S (3 Bft)
- - 5 min 0,050 mm 0,0 UV-I 175 W/m 5,7 C 5,8 C 29,0 km/h
S (5 Bft)
100,00 %
Durchschnitt _ 2,7 C 98 % 1016,0 hPa #8,0 mm 2,9 km/h (1 Bft) S - #30 min. #0,178 mm 0,0 UV-I 54 W/m 2,4 C 2,2 C 6,3 km/h (2 Bft) 98,86 %
Alle Angaben ohne Gewhr !